CW1509 Weather Reports


Display with metric or nautical units.
time (UTC)temp
F
wind
direction
speed
MPH
gust
MPH
rain 1hr
in
rain 24hr
in
rain mn
in
humidity
%
barometer
mb
20260905224430 79 360 2.0 5.0 0.00 0.01 0.00 80 1014.5
20260905223416 80 37 2.0 7.0 0.00 0.01 0.00 79 1014.4
20260905222911 80 40 2.0 6.0 0.00 0.01 0.00 79 1014.3
20260905222431 80 49 2.0 8.0 0.00 0.01 0.00 79 1014.2
20260905222044 80 34 3.0 8.0 0.00 0.01 0.00 78 1014.1
20260905221425 80 19 3.0 6.0 0.00 0.01 0.00 77 1014.0
20260905220909 80 5 1.0 3.0 0.00 0.01 0.00 78 1014.0
20260905215425 81 360 1.0 6.0 0.00 0.01 0.00 76 1013.9
20260905215118 81 69 2.0 6.0 0.00 0.01 0.00 76 1013.8
20260905214436 81 17 1.0 4.0 0.00 0.01 0.00 75 1013.8
20260905214043 81 30 1.0 5.0 0.00 0.01 0.00 76 1013.8
20260905213432 81 360 1.0 5.0 0.00 0.01 0.00 76 1013.8
20260905212918 81 5 0.0 4.0 0.00 0.01 0.00 76 1013.8
20260905212718 81 5 1.0 4.0 0.00 0.01 0.00 75 1013.8
20260905212023 82 355 1.0 9.0 0.00 0.01 0.00 75 1013.8
20260905211415 82 38 3.0 6.0 0.00 0.01 0.00 74 1013.8
20260905211317 82 47 4.0 6.0 0.00 0.01 0.00 74 1013.8
20260905210512 82 13 1.0 3.0 0.00 0.01 0.00 75 1013.7
20260905205911 82 41 1.0 6.0 0.00 0.01 0.00 76 1013.7
20260905205516 82 5 3.0 6.0 0.00 0.01 0.00 75 1013.6
20260905203928 83 317 2.0 4.0 0.00 0.01 0.00 74 1013.7
20260905203418 83 12 3.0 8.0 0.00 0.01 0.00 74 1013.7
20260905203112 83 67 2.0 8.0 0.00 0.01 0.00 73 1013.7
20260905202430 83 28 1.0 4.0 0.00 0.01 0.00 75 1013.8
20260905201920 83 323 1.0 3.0 0.00 0.01 0.00 75 1013.7
20260905200911 83 355 1.0 9.0 0.00 0.01 0.00 74 1013.9
20260905200507 83 9 1.0 9.0 0.00 0.01 0.00 74 1013.9
20260905195501 83 13 2.0 4.0 0.00 0.01 0.00 74 1013.9
20260905195007 83 355 1.0 2.0 0.00 0.01 0.00 75 1013.8
20260905194605 83 333 1.0 5.0 0.00 0.01 0.00 74 1013.9
20260905193924 84 55 3.0 6.0 0.00 0.01 0.00 73 1013.9
20260905193638 84 60 2.0 6.0 0.00 0.01 0.00 73 1014.0
20260905192955 84 24 2.0 6.0 0.00 0.01 0.00 72 1014.0
20260905192429 84 331 1.0 6.0 0.00 0.01 0.00 73 1013.9
20260905191521 85 72 1.0 4.0 0.00 0.01 0.00 72 1014.0
20260905190920 85 355 2.0 5.0 0.00 0.01 0.00 72 1014.0
20260905190429 84 24 1.0 3.0 0.00 0.01 0.00 71 1014.0
20260905190157 84 323 1.0 4.0 0.00 0.01 0.00 72 1013.9
20260905185634 84 5 2.0 4.0 0.00 0.01 0.00 71 1014.0
20260905185147 84 350 1.0 4.0 0.00 0.01 0.00 72 1014.0
20260905184650 84 355 0.0 4.0 0.00 0.01 0.00 72 1014.1
20260905183919 84 341 0.0 3.0 0.00 0.01 0.00 73 1014.1
20260905183359 84 34 2.0 3.0 0.00 0.01 0.00 73 1014.1
20260905182754 84 355 0.0 4.0 0.00 0.01 0.00 74 1014.1
20260905181924 83 331 1.0 6.0 0.00 0.01 0.00 74 1014.1
20260905181103 83 344 2.0 5.0 0.00 0.01 0.00 74 1014.1
20260905180612 84 339 1.0 5.0 0.00 0.07 0.00 75 1014.2
20260905180151 84 11 0.0 2.0 0.00 0.07 0.00 74 1014.3
20260905175640 84 9 0.0 2.0 0.00 0.07 0.00 75 1014.3
20260905174920 84 290 1.0 3.0 0.00 0.07 0.00 74 1014.3
20260905174429 84 80 1.0 5.0 0.00 0.07 0.00 75 1014.4
20260905173944 83 57 1.0 5.0 0.00 0.07 0.00 75 1014.4
20260905172939 83 327 0.0 4.0 0.00 0.07 0.00 74 1014.4
20260905172506 83 29 0.0 4.0 0.00 0.07 0.00 76 1014.6
20260905171947 83 9 0.0 3.0 0.00 0.07 0.00 75 1014.6
20260905171422 83 28 0.0 4.0 0.00 0.07 0.00 75 1014.5
20260905170649 83 5 0.0 2.0 0.00 0.07 0.00 75 1014.6
20260905165913 83 340 0.0 2.0 0.00 0.10 0.00 76 1014.7
20260905165515 83 34 1.0 2.0 0.00 0.10 0.00 76 1014.7
20260905164925 83 190 0.0 1.0 0.00 0.10 0.00 77 1014.7
20260905164416 83 190 0.0 4.0 0.00 0.10 0.00 77 1014.6
20260905163924 82 190 2.0 4.0 0.00 0.10 0.00 78 1014.7
20260905163431 82 186 0.0 2.0 0.00 0.10 0.00 79 1014.6
20260905162918 81 92 0.0 3.0 0.00 0.10 0.00 79 1014.6
20260905161946 81 240 1.0 3.0 0.00 0.10 0.00 82 1014.6
20260905161524 80 201 1.0 3.0 0.00 0.10 0.00 83 1014.5
20260905160913 79 61 0.0 4.0 0.00 0.10 0.00 84 1014.6
20260905160505 79 277 1.0 4.0 0.00 0.10 0.00 84 1014.5
20260905155938 79 101 0.0 2.0 0.00 0.10 0.00 85 1014.6
20260905155759 79 54 1.0 2.0 0.00 0.10 0.00 85 1014.6
20260905154933 78 196 0.0 0.0 0.00 0.10 0.00 86 1014.6
20260905154422 78 196 0.0 2.0 0.00 0.10 0.00 86 1014.6
20260905153917 78 196 0.0 4.0 0.00 0.10 0.00 86 1014.6
20260905153646 78 259 1.0 4.0 0.00 0.10 0.00 86 1014.7
20260905152932 77 283 0.0 2.0 0.00 0.10 0.00 86 1014.8
20260905152433 77 184 0.0 3.0 0.00 0.10 0.00 87 1014.7
20260905150914 76 29 0.0 4.0 0.00 0.10 0.00 87 1014.6
20260905150731 76 29 1.0 4.0 0.00 0.10 0.00 87 1014.5
20260905150053 76 28 1.0 4.0 0.00 0.10 0.00 87 1014.6
20260905145415 76 42 0.0 1.0 0.00 0.10 0.00 88 1014.6
20260905145030 76 61 0.0 3.0 0.00 0.10 0.00 88 1014.5
20260905144420 75 44 1.0 3.0 0.00 0.10 0.00 88 1014.6
20260905143914 75 173 0.0 2.0 0.00 0.10 0.00 88 1014.6
20260905143411 75 70 0.0 1.0 0.00 0.10 0.00 89 1014.6
20260905142921 75 61 0.0 4.0 0.00 0.10 0.00 89 1014.8
20260905142625 75 61 0.0 4.0 0.00 0.10 0.00 89 1014.8
20260905141944 75 17 0.0 2.0 0.00 0.10 0.00 90 1014.7
20260905141434 75 17 1.0 4.0 0.00 0.10 0.00 89 1014.7
20260905140931 74 9 1.0 4.0 0.00 0.10 0.00 89 1014.7
20260905140451 74 60 1.0 4.0 0.00 0.10 0.00 90 1014.6
20260905135926 74 61 1.0 4.0 0.00 0.10 0.00 90 1014.6
20260905135446 74 59 0.0 2.0 0.00 0.10 0.00 90 1014.6
20260905134925 74 47 1.0 2.0 0.00 0.10 0.00 90 1014.5
20260905134426 74 33 0.0 3.0 0.00 0.10 0.00 90 1014.3
20260905133927 74 80 0.0 3.0 0.00 0.10 0.00 90 1014.3
20260905133427 74 58 1.0 3.0 0.00 0.10 0.00 91 1014.3
20260905132926 74 76 0.0 3.0 0.00 0.10 0.00 91 1014.3
20260905132426 73 39 0.0 3.0 0.00 0.10 0.00 91 1014.3
20260905131920 73 41 0.0 4.0 0.00 0.10 0.00 91 1014.3
20260905131420 73 53 2.0 4.0 0.00 0.10 0.00 91 1014.3
20260905130939 73 63 2.0 5.0 0.00 0.10 0.00 90 1014.3
20260905130437 73 40 1.0 5.0 0.00 0.10 0.00 91 1014.2
20260905125914 73 14 1.0 3.0 0.00 0.10 0.00 91 1014.3
20260905125434 73 81 0.0 4.0 0.00 0.10 0.00 91 1014.3
20260905124932 73 11 2.0 4.0 0.00 0.10 0.00 91 1014.3
20260905124411 73 42 2.0 4.0 0.00 0.10 0.00 91 1014.3
20260905123930 73 32 0.0 0.0 0.00 0.10 0.00 92 1014.3
20260905123446 73 61 0.0 0.0 0.00 0.10 0.00 93 1014.1
20260905122925 73 67 0.0 0.0 0.00 0.10 0.00 93 1014.0
20260905122423 73 11 0.0 0.0 0.00 0.10 0.00 93 1014.0
20260905121924 73 49 0.0 0.0 0.00 0.10 0.00 93 1013.8
20260905121423 73 49 0.0 0.0 0.00 0.10 0.00 93 1013.8
20260905120942 73 49 0.0 0.0 0.00 0.10 0.00 93 1013.7
20260905120420 73 49 0.0 0.0 0.00 0.10 0.00 93 1013.7
20260905115940 72 49 0.0 0.0 0.00 0.10 0.00 93 1013.5
20260905115420 72 49 0.0 0.0 0.00 0.10 0.00 93 1013.5
20260905114919 73 49 0.0 0.0 0.00 0.10 0.00 93 1013.5
20260905114419 73 49 0.0 0.0 0.00 0.10 0.00 93 1013.5
20260905113917 73 49 0.0 0.0 0.00 0.10 0.00 93 1013.5
20260905113416 73 49 0.0 0.0 0.00 0.10 0.00 93 1013.5
20260905112916 73 49 0.0 2.0 0.00 0.10 0.00 93 1013.5
20260905112415 73 49 0.0 3.0 0.00 0.10 0.00 93 1013.5
20260905111914 73 64 2.0 3.0 0.00 0.10 0.00 93 1013.5
20260905111413 73 184 0.0 0.0 0.00 0.10 0.00 92 1013.3
20260905110913 73 184 0.0 0.0 0.00 0.10 0.00 92 1013.2
20260905110412 73 184 0.0 0.0 0.00 0.10 0.00 92 1013.1
20260905105911 73 184 0.0 0.0 0.00 0.10 0.00 92 1013.1
20260905105412 73 184 0.0 0.0 0.00 0.10 0.00 92 1013.1
20260905104911 73 184 0.0 0.0 0.00 0.10 0.00 92 1013.0
20260905104410 73 184 0.0 0.0 0.00 0.10 0.00 92 1012.9
20260905103910 73 184 0.0 0.0 0.00 0.10 0.00 92 1013.1
20260905103411 73 184 0.0 0.0 0.00 0.10 0.00 92 1012.9
20260905102930 73 184 0.0 0.0 0.00 0.10 0.00 92 1012.9
20260905102427 73 184 0.0 0.0 0.00 0.10 0.00 92 1013.0
20260905101927 73 184 0.0 0.0 0.00 0.10 0.00 92 1012.9
20260905101446 73 184 0.0 0.0 0.00 0.10 0.00 92 1012.8
20260905100926 73 184 0.0 0.0 0.00 0.10 0.00 92 1013.1
20260905100426 73 184 0.0 0.0 0.00 0.10 0.00 92 1012.9
20260905095924 73 184 0.0 0.0 0.00 0.10 0.00 92 1012.9
20260905095444 73 184 0.0 0.0 0.00 0.10 0.00 92 1012.9
20260905094922 73 184 0.0 0.0 0.00 0.10 0.00 92 1013.0
20260905094442 73 184 0.0 0.0 0.00 0.10 0.00 92 1012.9
20260905093921 73 184 0.0 0.0 0.00 0.10 0.00 92 1012.9
20260905093421 73 184 0.0 0.0 0.00 0.10 0.00 92 1012.9
20260905092920 73 184 0.0 0.0 0.00 0.10 0.00 92 1012.9
20260905092419 74 184 0.0 0.0 0.00 0.10 0.00 93 1012.8
20260905091917 74 167 0.0 0.0 0.00 0.10 0.00 93 1013.0
20260905091417 74 190 0.0 0.0 0.00 0.10 0.00 93 1012.9
20260905090931 74 190 0.0 2.0 0.00 0.10 0.00 93 1013.1
20260905090410 74 190 1.0 2.0 0.00 0.10 0.00 93 1013.1
20260905085910 74 149 0.0 0.0 0.00 0.10 0.00 93 1013.1
20260905085409 74 149 0.0 0.0 0.00 0.10 0.00 93 1013.2
20260905084909 74 149 0.0 0.0 0.00 0.10 0.00 93 1013.2
20260905084430 74 137 0.0 2.0 0.00 0.10 0.00 93 1013.5
20260905083929 74 188 0.0 0.0 0.00 0.10 0.00 93 1013.4
20260905083428 74 183 0.0 0.0 0.00 0.10 0.00 93 1013.3
20260905082926 74 183 0.0 0.0 0.00 0.10 0.00 93 1013.3
20260905082425 74 178 0.0 1.0 0.00 0.10 0.00 93 1013.3
20260905081924 74 165 0.0 1.0 0.00 0.10 0.00 93 1013.2
20260905081422 74 141 0.0 0.0 0.00 0.10 0.00 93 1013.1
20260905080920 74 141 0.0 0.0 0.00 0.10 0.00 93 1013.1
20260905080419 74 141 0.0 0.0 0.00 0.10 0.00 93 1013.1
20260905075919 74 116 0.0 0.0 0.00 0.10 0.00 93 1013.2
20260905075419 74 73 0.0 2.0 0.00 0.10 0.00 93 1013.3
20260905074919 74 34 0.0 2.0 0.00 0.10 0.00 93 1013.3
20260905074418 74 61 0.0 3.0 0.00 0.10 0.00 93 1013.2
20260905073916 74 74 1.0 3.0 0.00 0.10 0.00 93 1013.3
20260905073434 74 73 1.0 3.0 0.00 0.10 0.00 93 1013.3
20260905072912 74 55 0.0 0.0 0.00 0.10 0.00 93 1013.4
20260905072410 74 52 0.0 0.0 0.00 0.10 0.00 93 1013.3
20260905071930 74 355 0.0 0.0 0.00 0.10 0.00 93 1013.3
20260905071449 74 22 0.0 0.0 0.00 0.10 0.00 93 1013.1
20260905070927 74 55 0.0 0.0 0.00 0.10 0.00 93 1013.1
20260905070428 74 55 0.0 2.0 0.00 0.10 0.00 93 1013.2
20260905065927 74 77 0.0 4.0 0.00 0.10 0.00 93 1013.2
20260905065448 74 65 0.0 5.0 0.00 0.10 0.00 92 1013.3
20260905064927 74 74 2.0 5.0 0.00 0.10 0.00 92 1013.3
20260905064447 74 26 0.0 4.0 0.00 0.10 0.00 92 1013.1
20260905063926 74 53 1.0 5.0 0.00 0.10 0.00 92 1012.8
20260905063445 74 5 2.0 12.0 0.00 0.10 0.00 92 1012.8
20260905062924 75 88 2.0 12.0 0.00 0.10 0.00 92 1012.9
20260905062422 75 72 3.0 9.0 0.00 0.10 0.00 91 1013.1
20260905061922 75 13 4.0 9.0 0.00 0.10 0.00 91 1013.3
20260905061423 76 32 3.0 5.0 0.00 0.10 0.00 92 1013.4
20260905060923 76 360 1.0 2.0 0.00 0.10 0.00 92 1013.2
20260905060423 76 5 0.0 2.0 0.00 0.10 0.00 92 1012.9
20260905055923 76 13 0.0 2.0 0.00 0.10 0.00 92 1012.9
20260905055420 76 324 1.0 2.0 0.00 0.10 0.00 92 1013.1
20260905054919 76 69 0.0 0.0 0.00 0.10 0.00 92 1012.9
20260905054418 76 69 0.0 0.0 0.00 0.10 0.00 92 1012.9
20260905053917 76 69 0.0 0.0 0.00 0.10 0.00 92 1012.9
20260905053416 76 69 0.0 1.0 0.00 0.10 0.00 92 1013.1
20260905052915 76 69 0.0 1.0 0.00 0.10 0.00 92 1012.9
20260905052415 76 69 0.0 0.0 0.00 0.10 0.00 92 1012.7
20260905051914 76 69 0.0 0.0 0.00 0.10 0.00 92 1012.9
20260905051433 76 69 0.0 0.0 0.00 0.10 0.00 92 1013.1
20260905050913 77 69 0.0 0.0 0.00 0.10 0.00 92 1013.2
20260905050412 77 69 0.0 0.0 0.00 0.10 0.00 92 1013.4
20260905045910 77 69 0.0 2.0 0.00 0.10 0.00 92 1013.6
20260905045429 77 69 0.0 2.0 0.00 0.10 0.00 92 1013.5
20260905044928 77 69 0.0 1.0 0.00 0.10 0.00 92 1013.5
20260905044427 77 69 0.0 0.0 0.00 0.10 0.00 92 1013.5
20260905043926 77 112 0.0 0.0 0.00 0.10 0.00 92 1013.2
20260905043442 77 166 0.0 0.0 0.00 0.10 0.00 91 1013.1
20260905042920 77 166 0.0 0.0 0.00 0.10 0.00 91 1013.2
20260905042418 77 166 0.0 0.0 0.00 0.10 0.00 91 1013.3
20260905041919 77 166 0.0 0.0 0.00 0.10 0.00 91 1013.3
20260905041438 77 166 0.0 0.0 0.00 0.10 0.00 91 1013.4
20260905040917 78 55 0.0 0.0 0.01 0.10 0.00 91 1013.5
20260905040417 78 55 0.0 1.0 0.01 0.10 0.10 91 1013.6
20260905035918 78 55 0.0 2.0 0.01 0.10 0.10 91 1013.6
20260905035416 78 55 0.0 2.0 0.01 0.10 0.10 91 1013.7
20260905034915 78 44 0.0 0.0 0.01 0.10 0.10 91 1013.7
20260905034415 78 44 0.0 0.0 0.01 0.10 0.10 90 1013.7
20260905033935 78 44 0.0 0.0 0.01 0.10 0.10 90 1013.7
20260905033413 79 44 0.0 0.0 0.01 0.10 0.10 90 1013.7
20260905032913 79 44 0.0 0.0 0.01 0.10 0.10 90 1013.8
20260905032432 79 63 0.0 0.0 0.01 0.10 0.10 90 1013.8
20260905031930 79 63 0.0 0.0 0.01 0.10 0.10 89 1013.9
20260905031429 79 63 0.0 0.0 0.00 0.09 0.09 89 1014.0
20260905030949 79 63 0.0 0.0 0.00 0.09 0.09 88 1014.0
20260905030426 79 63 0.0 0.0 0.00 0.09 0.09 88 1014.0
20260905025926 79 63 0.0 0.0 0.00 0.09 0.09 88 1014.0
20260905025426 79 63 0.0 0.0 0.00 0.09 0.09 88 1014.0
20260905024944 79 63 0.0 0.0 0.00 0.09 0.09 88 1014.1
20260905024422 80 63 0.0 0.0 0.00 0.09 0.09 88 1014.1
20260905023922 80 63 0.0 0.0 0.00 0.09 0.09 88 1014.2
20260905023441 80 63 0.0 0.0 0.00 0.09 0.09 88 1014.1
20260905022921 80 63 0.0 0.0 0.00 0.09 0.09 88 1014.1
20260905022420 80 63 0.0 0.0 0.00 0.09 0.09 88 1014.1
20260905021919 80 63 0.0 0.0 0.00 0.09 0.09 88 1014.1
20260905021419 80 63 0.0 0.0 0.00 0.09 0.09 88 1014.2
20260905020918 80 63 0.0 0.0 0.00 0.09 0.09 87 1014.1
20260905020437 80 63 0.0 0.0 0.00 0.09 0.09 88 1014.0
20260905015916 80 63 0.0 0.0 0.00 0.09 0.09 88 1013.9
20260905015414 80 63 0.0 0.0 0.00 0.09 0.09 88 1013.8
20260905014912 80 63 0.0 0.0 0.00 0.09 0.09 87 1013.7
20260905014440 80 63 0.0 0.0 0.00 0.09 0.09 87 1013.6
20260905013917 80 63 0.0 2.0 0.00 0.09 0.09 87 1013.7
20260905013418 80 63 0.0 2.0 0.00 0.09 0.09 87 1013.7
20260905012915 80 51 0.0 2.0 0.00 0.09 0.09 86 1013.6
20260905012414 80 70 1.0 2.0 0.00 0.09 0.09 86 1013.6
20260905011935 81 70 0.0 0.0 0.00 0.09 0.09 86 1013.7
20260905011413 81 70 0.0 0.0 0.00 0.09 0.09 86 1013.5
20260905010914 81 70 0.0 3.0 0.00 0.09 0.09 85 1013.4
20260905010412 81 70 1.0 3.0 0.00 0.09 0.09 85 1013.5
20260905005911 82 160 0.0 1.0 0.00 0.09 0.09 84 1013.5
20260905005428 82 160 0.0 1.0 0.00 0.09 0.09 84 1013.4
20260905004946 82 160 0.0 0.0 0.00 0.09 0.09 83 1013.4
20260905004425 83 160 0.0 0.0 0.00 0.09 0.09 82 1013.5
20260905003923 83 160 0.0 0.0 0.00 0.09 0.09 82 1013.4
20260905003424 83 160 0.0 0.0 0.00 0.09 0.09 81 1013.4
20260905002924 83 160 0.0 0.0 0.00 0.09 0.09 81 1013.4
20260905002444 84 160 0.0 0.0 0.00 0.09 0.09 80 1013.3
20260905001921 84 160 0.0 0.0 0.00 0.09 0.09 79 1013.2
20260905001419 85 160 0.0 0.0 0.00 0.09 0.09 78 1013.2
20260905000940 85 160 0.0 0.0 0.00 0.09 0.09 78 1013.3
20260905000420 85 160 0.0 0.0 0.00 0.09 0.09 78 1013.2
20260904235918 86 160 0.0 0.0 0.00 0.09 0.09 77 1013.2
20260904235437 86 160 0.0 1.0 0.00 0.09 0.09 75 1013.2
20260904234915 86 160 0.0 1.0 0.00 0.09 0.09 74 1013.3
20260904234415 86 160 0.0 0.0 0.00 0.09 0.09 74 1013.2
20260904233914 86 160 0.0 0.0 0.00 0.09 0.09 74 1013.2
20260904233413 87 160 0.0 1.0 0.00 0.09 0.09 73 1013.2
20260904232913 87 160 0.0 1.0 0.00 0.09 0.09 72 1013.3
20260904232433 87 160 0.0 1.0 0.00 0.09 0.09 73 1013.3
20260904231911 87 160 0.0 0.0 0.00 0.09 0.09 72 1013.3
20260904231411 87 160 0.0 1.0 0.00 0.09 0.09 72 1013.3
20260904230911 87 160 0.0 1.0 0.00 0.09 0.09 71 1013.2
20260904230429 87 184 0.0 1.0 0.00 0.09 0.09 71 1013.2
20260904225928 87 262 0.0 1.0 0.00 0.09 0.09 70 1013.2
20260904225427 88 262 0.0 2.0 0.00 0.09 0.09 70 1013.2
20260904224927 88 262 1.0 2.0 0.00 0.09 0.09 69 1013.0